This demonstration page uses our WeatherBlox Daily Observations layout. Learn more.

Left ArrowRight Arrow

38.83388, -104.82136

Hourly Observations for January 2, 2017

Temp ( °F °C ) Dew Point ( °F °C ) Humidity (%) Winds ( mph kmh ) Pressure ( in mb ) Visibility ( mi km ) Precip ( " mm )
12:58 am 00:58 Clear 34 1.3 12 -10.9 40 40 WNW 8 13 29.25 991 10 16 N/A
1:58 am 01:58 Clear 34 1.1 11 -11.8 38 38 Calm 29.24 990 10 16 N/A
2:58 am 02:58 Clear 33 0.5 10 -12 39 39 NW 6 9 29.25 991 10 16 N/A
3:58 am 03:58 Clear 35 1.4 10 -12.3 36 36 NW 7 11 29.29 992 10 16 N/A
4:58 am 04:58 Clear 34 1.1 10 -12.3 36 36 SE 9 15 29.33 993 10 16 N/A
5:58 am 05:58 Clear 35 1.4 9 -12.9 34 34 NW 5 7 29.34 994 10 16 N/A
6:58 am 06:58 Clear 34 1.2 8 -13.2 34 34 WNW 9 15 29.36 994 10 16 N/A
7:58 am 07:58 Sunny 33 0.6 10 -12.4 37 37 NW 8 13 29.37 995 10 16 N/A
8:15 am 08:15 Sunny 34 1 9 -13 35 35 N 15 24 29.68 1005 10 16 N/A
8:40 am 08:40 Sunny 37 3 7 -14 28 28 W 18 30 29.62 1003 10 16 N/A
8:47 am 08:47 Sunny 39 4 5 -15 24 24 NW 18 30 29.59 1002 10 16 N/A
8:53 am 08:53 Sunny 39 4 5 -15 24 24 ENE 17 28 29.59 1002 10 16 N/A
8:54 am 08:54 Sunny 39 4 7 -14 26 26 N 20 31 29.59 1002 10 16 N/A
8:58 am 08:58 Sunny 39 4.1 5 -14.9 24 24 NE 13 20 29.35 994 10 16 N/A
8:59 am 08:59 Sunny 39 4 5 -15 24 24 NNE 13 20 29.59 1002 10 16 N/A
9:06 am 09:06 Sunny 39 4 5 -15 24 24 NW 15 24 29.59 1002 10 16 N/A
9:08 am 09:08 Sunny 39 4 5 -15 24 24 N 15 24 29.59 1002 10 16 N/A
9:48 am 09:48 Partly Cloudy 41 5 7 -14 24 24 E 14 22 29.56 1001 10 16 N/A
9:49 am 09:49 Partly Cloudy 41 5 7 -14 24 24 ESE 20 31 29.56 1001 10 16 N/A
9:53 am 09:53 Mostly Sunny 41 5 7 -14 24 24 N 13 20 29.56 1001 10 16 N/A
9:56 am 09:56 Mostly Sunny 41 5 7 -14 24 24 ESE 15 24 29.56 1001 10 16 N/A
10:07 am 10:07 Mostly Sunny 41 5 5 -15 22 22 NW 20 31 29.53 1000 10 16 N/A
10:08 am 10:08 Mostly Sunny 41 5 3 -16 20 20 N 13 20 29.56 1001 10 16 N/A
10:10 am 10:10 Mostly Sunny 41 5 3 -16 20 20 E 13 20 29.56 1001 10 16 N/A
10:29 am 10:29 Partly Cloudy 41 5 5 -15 22 22 E 16 26 29.56 1001 10 16 N/A
10:32 am 10:32 Mostly Sunny 41 5 3 -16 20 20 N 22 35 29.56 1001 10 16 N/A
10:34 am 10:34 Mostly Sunny 41 5 5 -15 22 22 NNE 13 20 29.56 1001 10 16 N/A
10:37 am 10:37 Mostly Sunny 41 5 3 -16 20 20 E 15 24 29.56 1001 10 16 N/A
10:40 am 10:40 Mostly Sunny 41 5 5 -15 22 22 NNE 16 26 29.53 1000 10 16 N/A
10:41 am 10:41 Mostly Sunny 41 5 5 -15 22 22 WNW 16 26 29.53 1000 10 16 N/A
10:44 am 10:44 Mostly Sunny 41 5 3 -16 20 20 NNW 17 28 29.56 1001 10 16 N/A
10:45 am 10:45 Mostly Sunny 41 5 3 -16 20 20 NNE 12 19 29.53 1000 10 16 N/A
10:47 am 10:47 Mostly Sunny 41 5 3 -16 20 20 N 14 22 29.53 1000 10 16 N/A
10:50 am 10:50 Mostly Sunny 41 5 3 -16 20 20 NNW 17 28 29.50 999 10 16 N/A
10:57 am 10:57 Mostly Sunny 41 5 3 -16 20 20 E 15 24 29.56 1001 10 16 N/A
10:58 am 10:58 Mostly Sunny 41 5 4 -15.6 21 21 E 13 20 29.34 994 10 16 N/A
10:59 am 10:59 Mostly Sunny 41 5 5 -15 22 22 SE 13 20 29.53 1000 10 16 N/A
11:03 am 11:03 Partly Cloudy 41 5 7 -14 24 24 S 16 26 29.53 1000 10 16 N/A
11:08 am 11:08 Mostly Cloudy 41 5 5 -15 22 22 SE 16 26 29.53 1000 10 16 N/A
11:09 am 11:09 Mostly Cloudy 41 5 5 -15 22 22 E 15 24 29.53 1000 10 16 N/A
11:36 am 11:36 Mostly Sunny 45 7 5 -15 19 19 SE 16 26 29.44 997 10 16 N/A
11:58 am 11:58 Sunny 44 6.9 3 -16.3 17 17 NNE 18 30 29.27 991 10 16 N/A
11:59 am 11:59 Sunny 45 7 3 -16 18 18 ENE 13 20 29.44 997 10 16 N/A
12:09 pm 12:09 Sunny 46 8 1 -17 15 15 NNW 14 22 29.41 996 10 16 N/A
12:32 pm 12:32 Sunny 46 8 3 -16 17 17 NNE 13 20 29.47 998 10 16 N/A
12:58 pm 12:58 Sunny 46 7.9 1 -17.2 15 15 E 9 15 29.31 993 10 16 N/A
1:58 pm 13:58 Sunny 47 8.1 1 -17.1 15 15 SSE 3 6 29.34 994 10 16 N/A
2:04 pm 14:04 Sunny 46 8 1 -17 15 15 NW 20 31 29.50 999 10 16 N/A
2:06 pm 14:06 Sunny 46 8 1 -17 15 15 N 18 30 29.50 999 10 16 N/A
2:18 pm 14:18 Sunny 46 8 1 -17 15 15 ENE 12 19 29.50 999 10 16 N/A
2:58 pm 14:58 Mostly Sunny 45 7 4 -15.5 18 18 E 6 9 29.39 995 10 16 N/A
3:58 pm 15:58 Partly Cloudy 43 6 5 -14.8 21 21 SW 7 11 29.44 997 10 16 N/A
4:58 pm 16:58 Partly Cloudy 40 4.4 8 -13.4 26 26 SSW 7 11 29.47 998 10 16 N/A
5:58 pm 17:58 Clear 38 3.4 10 -12.5 30 30 E 3 6 29.52 1000 10 16 N/A
6:58 pm 18:58 Mostly Cloudy 37 2.9 11 -11.9 33 33 WSW 6 9 29.54 1000 10 16 N/A
7:58 pm 19:58 Mostly Cloudy 32 0.2 12 -11.1 43 43 S 10 17 29.59 1002 10 16 N/A
8:58 pm 20:58 Mostly Cloudy 29 -1.9 13 -10.7 51 51 S 3 6 29.58 1002 10 16 N/A
9:58 pm 21:58 Clear 28 -2.2 12 -10.9 52 52 S 6 9 29.62 1003 10 16 N/A
10:58 pm 22:58 Mostly Cloudy 27 -2.7 11 -11.5 51 51 S 12 19 29.66 1004 10 16 N/A
11:58 pm 23:58 Mostly Cloudy 23 -4.9 12 -10.9 63 63 SSE 10 17 29.62 1003 10 16 N/A

Powered by AerisWeather